CDT,Max TemperatureF,Mean TemperatureF,Min TemperatureF,Max Dew PointF,MeanDew PointF,Min DewpointF,Max Humidity, Mean Humidity, Min Humidity, Max Sea Level PressureIn, Mean Sea Level PressureIn, Min Sea Level PressureIn, Max VisibilityMiles, Mean VisibilityMiles, Min VisibilityMiles, Max Wind SpeedMPH, Mean Wind SpeedMPH, Max Gust SpeedMPH,PrecipitationIn, CloudCover, Events, WindDirDegrees
2012-10-1,73,63,53,55,50,43,88,71,36,29.86,29.82,29.77,10,10,10,18,2,30,0.00,3,,350
2012-10-2,73,62,50,50,47,45,94,74,38,29.96,29.90,29.85,10,10,10,12,2,,0.00,4,,263
2012-10-3,75,65,55,55,49,45,82,64,34,30.09,30.00,29.96,10,10,10,13,4,,0.00,3,,201
2012-10-4,82,70,57,59,54,50,88,69,32,30.20,30.14,30.09,10,10,10,13,6,,0.00,2,,174
2012-10-5,64,52,39,59,47,37,100,87,72,30.25,30.16,30.11,10,9,1,12,5,21,0.00,7,Rain-Thunderstorm,2
2012-10-6,46,40,35,41,36,32,100,88,66,30.31,30.26,30.23,10,10,9,7,1,,0.00,4,,345
2012-10-7,50,41,32,39,34,28,100,75,43,30.31,30.26,30.19,10,10,10,7,1,,0.00,4,,327
2012-10-8,60,48,35,39,36,32,93,73,34,30.25,30.18,30.08,10,10,10,9,1,,0.00,0,,191
2012-10-9,64,52,39,54,43,37,93,76,45,30.09,30.04,29.93,10,10,10,10,2,21,0.00,3,,173
2012-10-10,62,52,42,54,39,30,88,62,30,30.31,30.20,30.08,10,9,2,16,7,21,0.00,5,,12
2012-10-11,59,54,50,54,45,36,94,71,51,30.23,30.18,30.12,10,8,1,9,6,,0.00,8,Rain,125
2012-10-12,64,58,53,63,57,54,100,99,88,30.30,30.20,30.14,10,5,0,18,5,24,0.23,6,Fog-Rain-Thunderstorm,112
2012-10-13,73,64,55,64,60,55,100,92,65,30.17,30.03,29.82,10,4,0,17,10,23,0.93,8,Fog-Rain-Thunderstorm,150
2012-10-14,69,64,57,63,54,45,100,75,46,30.07,29.89,29.72,10,9,2,17,9,30,0.27,3,Rain-Thunderstorm,234
2012-10-15,77,65,53,48,45,43,72,57,32,30.08,30.01,29.95,10,10,10,12,4,21,0.00,0,,222
2012-10-16,78,68,57,46,43,36,67,47,22,29.95,29.82,29.69,10,10,10,18,7,30,0.00,1,,198
2012-10-17,71,63,53,57,51,41,100,79,58,29.85,29.63,29.49,10,10,2,14,6,23,0.00,2,Rain-Thunderstorm,194
2012-10-18,60,52,44,41,32,23,71,49,23,29.83,29.77,29.74,10,10,7,23,7,34,0.00,2,,259
2012-10-19,57,50,44,41,35,30,87,57,36,29.88,29.79,29.72,10,10,6,18,8,30,0.00,3,,285
2012-10-20,75,58,41,46,40,36,87,61,29,29.92,29.87,29.81,10,10,8,10,4,,0.00,0,,169
2012-10-21,80,68,57,66,55,45,83,67,55,29.94,29.89,29.86,10,10,10,12,6,17,0.00,3,,157
2012-10-22,80,74,68,64,63,63,88,77,54,29.99,29.95,29.91,10,10,7,16,7,22,0.00,3,Rain,174
2012-10-23,82,72,62,63,59,54,94,72,39,29.99,29.96,29.90,10,10,9,13,5,21,0.00,4,Thunderstorm,169
2012-10-24,82,71,60,61,59,59,94,76,45,30.01,29.95,29.87,10,10,10,14,7,23,0.58,3,,158
2012-10-25,77,60,42,61,54,37,94,81,54,30.19,29.94,29.85,10,10,2,17,10,34,0.00,5,Rain,201
2012-10-26,50,42,35,37,32,27,81,69,43,30.33,30.26,30.18,10,10,10,18,11,26,0.00,5,,352
2012-10-27,50,39,28,28,28,23,93,74,35,30.33,30.27,30.19,10,10,10,10,1,16,0.00,0,,353
2012-10-28,53,40,26,28,27,23,93,72,30,30.30,30.25,30.21,10,10,8,12,1,,0.00,0,,355
2012-10-29,55,42,30,41,28,23,87,68,29,30.34,30.25,30.13,10,10,10,0,0,,0.00,3,,-1
2012-10-30,60,46,32,39,31,27,87,65,34,30.12,30.04,29.95,10,10,6,8,0,,0.00,4,,318
2012-10-31,62,50,37,36,34,27,87,62,32,30.06,30.01,29.98,10,10,3,9,1,,0.00,4,,322